* Astronomy

Members Login
Username 
 
Password 
    Remember Me  
Post Info TOPIC: Asteroid 2012 BG86


L

Posts: 131433
Date:
Asteroid 2012 BG86
Permalink  
 


Orbital elements:
2012 BG86                                                Earth MOID = 0.1885 AU
Epoch 2012 Mar. 14.0 TT = JDT 2456000.5                 MPC
M  69.95809              (2000.0)            P               Q
n   0.69065769     Peri.   33.60076     +0.91327247     +0.05834955
a   1.2675375      Node   316.75130     -0.35408308     +0.60300983
e   0.7525383      Incl.   36.04320     +0.20139160     +0.79559693
P   1.43           H   21.3           G   0.15           U   9

MPEC 2012 - B104



__________________
Page 1 of 1  sorted by
 
Quick Reply

Please log in to post quick replies.



Create your own FREE Forum
Report Abuse
Powered by ActiveBoard